User: anonymous   Login
Location: Unspecified
(0.0000°N, 0.0000°E)
Time: 07:09:16
(UTC+00:00)
Language:

COSMOS 2389 - Orbit

View from above orbital plane
View from above orbital plane
View from above satellite
View from above satellite

Ground track
Ground track

The orbit data is extracted from the following two-line orbital elements,

1 27436U 02026A   18200.86240332  .00000039  00000-0  24908-4 0  9990
2 27436  82.9519 146.9808 0047482  42.7349   9.3206 13.74927317810113
Epoch (UTC): 19 July 2018 20:41:51
Eccentricity: 0.0047482
inclination: 82.9519°
perigee height: 947 km
apogee height: 1017 km
right ascension of ascending node: 146.9808°
argument of perigee: 42.7349°
revolutions per day: 13.74927317
mean anomaly at epoch: 9.3206°
orbit number at epoch: 81011

The dashed part of the orbit path shows where the satellite is in the earth's shadow,  

DLR